#datetime,building,power
2022-03-26T00:00:00,mfh,23.55
2022-03-26T00:01:00,mfh,23.56
2022-03-26T00:02:00,mfh,23.64
2022-03-26T00:03:00,mfh,24.92
2022-03-26T00:04:00,mfh,24.22
2022-03-26T00:05:00,mfh,24.46
2022-03-26T00:06:00,mfh,24.53
2022-03-26T00:07:00,mfh,23.77
2022-03-26T00:08:00,mfh,23.77
2022-03-26T00:09:00,mfh,23.66
2022-03-26T00:10:00,mfh,23.68
2022-03-26T00:11:00,mfh,23.66
2022-03-26T00:12:00,mfh,24.40
2022-03-26T00:13:00,mfh,24.42
2022-03-26T00:14:00,mfh,24.26
2022-03-26T00:15:00,mfh,24.23
2022-03-26T00:16:00,mfh,24.46
2022-03-26T00:17:00,mfh,23.52
2022-03-26T00:18:00,mfh,23.52
2022-03-26T00:19:00,mfh,23.58
2022-03-26T00:20:00,mfh,24.24
2022-03-26T00:21:00,mfh,24.24
2022-03-26T00:22:00,mfh,24.23
2022-03-26T00:23:00,mfh,24.27
2022-03-26T00:24:00,mfh,24.21
2022-03-26T00:25:00,mfh,23.53
2022-03-26T00:26:00,mfh,23.51
2022-03-26T00:27:00,mfh,23.52
2022-03-26T00:28:00,mfh,24.36
2022-03-26T00:29:00,mfh,24.53
2022-03-26T00:30:00,mfh,24.66
2022-03-26T00:31:00,mfh,24.38
2022-03-26T00:32:00,mfh,25.53
2022-03-26T00:33:00,mfh,23.66
2022-03-26T00:34:00,mfh,23.66
2022-03-26T00:35:00,mfh,23.87
2022-03-26T00:36:00,mfh,23.46
2022-03-26T00:37:00,mfh,24.17
2022-03-26T00:38:00,mfh,24.29
2022-03-26T00:39:00,mfh,24.28
2022-03-26T00:40:00,mfh,24.24
2022-03-26T00:41:00,mfh,24.32
2022-03-26T00:42:00,mfh,23.63
2022-03-26T00:43:00,mfh,23.66
2022-03-26T00:44:00,mfh,28.87
2022-03-26T00:45:00,mfh,41.80
2022-03-26T00:46:00,mfh,44.23
2022-03-26T00:47:00,mfh,45.30
2022-03-26T00:48:00,mfh,45.65
2022-03-26T00:49:00,mfh,53.14
2022-03-26T00:50:00,mfh,53.48
2022-03-26T00:51:00,mfh,53.84
2022-03-26T00:52:00,mfh,53.74
2022-03-26T00:53:00,mfh,53.57
2022-03-26T00:54:00,mfh,54.18
2022-03-26T00:55:00,mfh,53.99
2022-03-26T00:56:00,mfh,54.06
2022-03-26T00:57:00,mfh,53.92
2022-03-26T00:58:00,mfh,54.66
2022-03-26T00:59:00,mfh,53.41
2022-03-26T01:00:00,mfh,53.53
2022-03-26T01:01:00,mfh,53.35
2022-03-26T01:02:00,mfh,44.53
2022-03-26T01:03:00,mfh,38.92
2022-03-26T01:04:00,mfh,32.47
2022-03-26T01:05:00,mfh,24.19
2022-03-26T01:06:00,mfh,24.55
2022-03-26T01:07:00,mfh,23.59
2022-03-26T01:08:00,mfh,23.59
2022-03-26T01:09:00,mfh,23.58
2022-03-26T01:10:00,mfh,23.58
2022-03-26T01:11:00,mfh,23.55
2022-03-26T01:12:00,mfh,24.24
2022-03-26T01:13:00,mfh,24.68
2022-03-26T01:14:00,mfh,24.54
2022-03-26T01:15:00,mfh,24.43
2022-03-26T01:16:00,mfh,23.78
2022-03-26T01:17:00,mfh,23.74
2022-03-26T01:18:00,mfh,23.72
2022-03-26T01:19:00,mfh,23.69
2022-03-26T01:20:00,mfh,24.35
2022-03-26T01:21:00,mfh,24.32
2022-03-26T01:22:00,mfh,24.10
2022-03-26T01:23:00,mfh,24.13
2022-03-26T01:24:00,mfh,23.47
2022-03-26T01:25:00,mfh,23.53
2022-03-26T01:26:00,mfh,23.48
2022-03-26T01:27:00,mfh,23.81
2022-03-26T01:28:00,mfh,24.12
2022-03-26T01:29:00,mfh,24.39
2022-03-26T01:30:00,mfh,24.30
2022-03-26T01:31:00,mfh,24.44
2022-03-26T01:32:00,mfh,24.92
2022-03-26T01:33:00,mfh,24.39
2022-03-26T01:34:00,mfh,24.40
2022-03-26T01:35:00,mfh,24.48
2022-03-26T01:36:00,mfh,25.51
2022-03-26T01:37:00,mfh,24.49
2022-03-26T01:38:00,mfh,24.57
2022-03-26T01:39:00,mfh,24.57
2022-03-26T01:40:00,mfh,24.50
2022-03-26T01:41:00,mfh,23.81
2022-03-26T01:42:00,mfh,23.67
2022-03-26T01:43:00,mfh,24.01
2022-03-26T01:44:00,mfh,23.67
2022-03-26T01:45:00,mfh,23.93
2022-03-26T01:46:00,mfh,24.54
2022-03-26T01:47:00,mfh,24.12
2022-03-26T01:48:00,mfh,24.27
2022-03-26T01:49:00,mfh,24.23
2022-03-26T01:50:00,mfh,23.48
2022-03-26T01:51:00,mfh,23.39
2022-03-26T01:52:00,mfh,23.46
2022-03-26T01:53:00,mfh,23.52
2022-03-26T01:54:00,mfh,24.14
2022-03-26T01:55:00,mfh,24.07
2022-03-26T01:56:00,mfh,24.10
2022-03-26T01:57:00,mfh,24.23
2022-03-26T01:58:00,mfh,23.53
2022-03-26T01:59:00,mfh,23.75
2022-03-26T02:00:00,mfh,24.16
2022-03-26T02:01:00,mfh,23.83
2022-03-26T02:02:00,mfh,23.89
2022-03-26T02:03:00,mfh,24.94
2022-03-26T02:04:00,mfh,24.52
2022-03-26T02:05:00,mfh,24.59
2022-03-26T02:06:00,mfh,24.66
2022-03-26T02:07:00,mfh,23.93
2022-03-26T02:08:00,mfh,23.65
2022-03-26T02:09:00,mfh,23.74
2022-03-26T02:10:00,mfh,23.66
2022-03-26T02:11:00,mfh,24.25
2022-03-26T02:12:00,mfh,24.22
2022-03-26T02:13:00,mfh,24.26
2022-03-26T02:14:00,mfh,24.23
2022-03-26T02:15:00,mfh,24.24
2022-03-26T02:16:00,mfh,23.47
2022-03-26T02:17:00,mfh,24.38
2022-03-26T02:18:00,mfh,23.89
2022-03-26T02:19:00,mfh,23.65
2022-03-26T02:20:00,mfh,24.36
2022-03-26T02:21:00,mfh,24.93
2022-03-26T02:22:00,mfh,24.55
2022-03-26T02:23:00,mfh,24.52
2022-03-26T02:24:00,mfh,23.88
2022-03-26T02:25:00,mfh,24.44
2022-03-26T02:26:00,mfh,25.12
2022-03-26T02:27:00,mfh,24.40
2022-03-26T02:28:00,mfh,24.49
2022-03-26T02:29:00,mfh,24.54
2022-03-26T02:30:00,mfh,24.34
2022-03-26T02:31:00,mfh,24.23
2022-03-26T02:32:00,mfh,24.38
2022-03-26T02:33:00,mfh,23.70
2022-03-26T02:34:00,mfh,23.65
2022-03-26T02:35:00,mfh,23.57
2022-03-26T02:36:00,mfh,23.57
2022-03-26T02:37:00,mfh,24.22
2022-03-26T02:38:00,mfh,24.22
2022-03-26T02:39:00,mfh,24.90
2022-03-26T02:40:00,mfh,24.71
2022-03-26T02:41:00,mfh,23.59
2022-03-26T02:42:00,mfh,23.52
2022-03-26T02:43:00,mfh,23.52
2022-03-26T02:44:00,mfh,23.52
2022-03-26T02:45:00,mfh,23.78
2022-03-26T02:46:00,mfh,24.41
2022-03-26T02:47:00,mfh,24.41
2022-03-26T02:48:00,mfh,24.44
2022-03-26T02:49:00,mfh,24.37
2022-03-26T02:50:00,mfh,23.59
2022-03-26T02:51:00,mfh,23.59
2022-03-26T02:52:00,mfh,23.60
2022-03-26T02:53:00,mfh,24.37
2022-03-26T02:54:00,mfh,24.04
2022-03-26T02:55:00,mfh,24.07
2022-03-26T02:56:00,mfh,24.05
2022-03-26T02:57:00,mfh,24.12
2022-03-26T02:58:00,mfh,24.14
2022-03-26T02:59:00,mfh,23.53
2022-03-26T03:00:00,mfh,23.53
2022-03-26T03:01:00,mfh,24.09
2022-03-26T03:02:00,mfh,23.44
2022-03-26T03:03:00,mfh,24.12
2022-03-26T03:04:00,mfh,24.14
2022-03-26T03:05:00,mfh,24.15
2022-03-26T03:06:00,mfh,24.32
2022-03-26T03:07:00,mfh,23.85
2022-03-26T03:08:00,mfh,23.88
2022-03-26T03:09:00,mfh,23.82
2022-03-26T03:10:00,mfh,23.79
2022-03-26T03:11:00,mfh,24.47
2022-03-26T03:12:00,mfh,24.60
2022-03-26T03:13:00,mfh,24.55
2022-03-26T03:14:00,mfh,24.52
2022-03-26T03:15:00,mfh,26.50
2022-03-26T03:16:00,mfh,25.46
2022-03-26T03:17:00,mfh,25.54
2022-03-26T03:18:00,mfh,25.96
2022-03-26T03:19:00,mfh,25.41
2022-03-26T03:20:00,mfh,26.06
2022-03-26T03:21:00,mfh,26.50
2022-03-26T03:22:00,mfh,26.06
2022-03-26T03:23:00,mfh,26.10
2022-03-26T03:24:00,mfh,25.42
2022-03-26T03:25:00,mfh,25.41
2022-03-26T03:26:00,mfh,26.18
2022-03-26T03:27:00,mfh,25.52
2022-03-26T03:28:00,mfh,26.17
2022-03-26T03:29:00,mfh,26.07
2022-03-26T03:30:00,mfh,26.33
2022-03-26T03:31:00,mfh,26.39
2022-03-26T03:32:00,mfh,24.44
2022-03-26T03:33:00,mfh,23.73
2022-03-26T03:34:00,mfh,23.73
2022-03-26T03:35:00,mfh,23.73
2022-03-26T03:36:00,mfh,23.64
2022-03-26T03:37:00,mfh,24.99
2022-03-26T03:38:00,mfh,23.56
2022-03-26T03:39:00,mfh,24.05
2022-03-26T03:40:00,mfh,23.42
2022-03-26T03:41:00,mfh,23.43
2022-03-26T03:42:00,mfh,24.14
2022-03-26T03:43:00,mfh,24.12
2022-03-26T03:44:00,mfh,24.32
2022-03-26T03:45:00,mfh,24.27
2022-03-26T03:46:00,mfh,24.28
2022-03-26T03:47:00,mfh,23.60
2022-03-26T03:48:00,mfh,23.59
2022-03-26T03:49:00,mfh,23.59
2022-03-26T03:50:00,mfh,23.88
2022-03-26T03:51:00,mfh,24.22
2022-03-26T03:52:00,mfh,24.26
2022-03-26T03:53:00,mfh,24.68
2022-03-26T03:54:00,mfh,24.73
2022-03-26T03:55:00,mfh,24.19
2022-03-26T03:56:00,mfh,24.09
2022-03-26T03:57:00,mfh,24.09
2022-03-26T03:58:00,mfh,24.08
2022-03-26T03:59:00,mfh,24.10
2022-03-26T04:00:00,mfh,24.77
2022-03-26T04:01:00,mfh,24.72
2022-03-26T04:02:00,mfh,24.57
2022-03-26T04:03:00,mfh,24.64
2022-03-26T04:04:00,mfh,24.22
2022-03-26T04:05:00,mfh,23.85
2022-03-26T04:06:00,mfh,23.83
2022-03-26T04:07:00,mfh,24.58
2022-03-26T04:08:00,mfh,25.27
2022-03-26T04:09:00,mfh,25.20
2022-03-26T04:10:00,mfh,25.13
2022-03-26T04:11:00,mfh,24.24
2022-03-26T04:12:00,mfh,23.81
2022-03-26T04:13:00,mfh,23.47
2022-03-26T04:14:00,mfh,24.38
2022-03-26T04:15:00,mfh,23.67
2022-03-26T04:16:00,mfh,23.81
2022-03-26T04:17:00,mfh,24.41
2022-03-26T04:18:00,mfh,24.34
2022-03-26T04:19:00,mfh,24.43
2022-03-26T04:20:00,mfh,24.42
2022-03-26T04:21:00,mfh,23.76
2022-03-26T04:22:00,mfh,23.92
2022-03-26T04:23:00,mfh,23.76
2022-03-26T04:24:00,mfh,23.66
2022-03-26T04:25:00,mfh,24.03
2022-03-26T04:26:00,mfh,24.08
2022-03-26T04:27:00,mfh,23.93
2022-03-26T04:28:00,mfh,23.94
2022-03-26T04:29:00,mfh,23.94
2022-03-26T04:30:00,mfh,23.29
2022-03-26T04:31:00,mfh,23.26
2022-03-26T04:32:00,mfh,23.24
2022-03-26T04:33:00,mfh,23.30
2022-03-26T04:34:00,mfh,32.33
2022-03-26T04:35:00,mfh,33.17
2022-03-26T04:36:00,mfh,24.81
2022-03-26T04:37:00,mfh,23.87
2022-03-26T04:38:00,mfh,24.07
2022-03-26T04:39:00,mfh,23.62
2022-03-26T04:40:00,mfh,23.67
2022-03-26T04:41:00,mfh,23.66
2022-03-26T04:42:00,mfh,24.61
2022-03-26T04:43:00,mfh,24.37
2022-03-26T04:44:00,mfh,24.42
2022-03-26T04:45:00,mfh,24.27
2022-03-26T04:46:00,mfh,24.39
2022-03-26T04:47:00,mfh,23.73
2022-03-26T04:48:00,mfh,23.50
2022-03-26T04:49:00,mfh,23.45
2022-03-26T04:50:00,mfh,23.47
2022-03-26T04:51:00,mfh,24.35
2022-03-26T04:52:00,mfh,24.11
2022-03-26T04:53:00,mfh,24.20
2022-03-26T04:54:00,mfh,24.24
2022-03-26T04:55:00,mfh,24.16
2022-03-26T04:56:00,mfh,23.46
2022-03-26T04:57:00,mfh,23.14
2022-03-26T04:58:00,mfh,23.13
2022-03-26T04:59:00,mfh,23.21
2022-03-26T05:00:00,mfh,24.47
2022-03-26T05:01:00,mfh,42.34
2022-03-26T05:02:00,mfh,44.04
2022-03-26T05:03:00,mfh,44.00
2022-03-26T05:04:00,mfh,44.45
2022-03-26T05:05:00,mfh,44.63
2022-03-26T05:06:00,mfh,44.74
2022-03-26T05:07:00,mfh,44.85
2022-03-26T05:08:00,mfh,43.85
2022-03-26T05:09:00,mfh,43.55
2022-03-26T05:10:00,mfh,42.57
2022-03-26T05:11:00,mfh,42.45
2022-03-26T05:12:00,mfh,42.42
2022-03-26T05:13:00,mfh,42.37
2022-03-26T05:14:00,mfh,43.15
2022-03-26T05:15:00,mfh,44.31
2022-03-26T05:16:00,mfh,44.37
2022-03-26T05:17:00,mfh,44.27
2022-03-26T05:18:00,mfh,45.45
2022-03-26T05:19:00,mfh,43.68
2022-03-26T05:20:00,mfh,42.71
2022-03-26T05:21:00,mfh,42.81
2022-03-26T05:22:00,mfh,42.68
2022-03-26T05:23:00,mfh,43.86
2022-03-26T05:24:00,mfh,44.04
2022-03-26T05:25:00,mfh,43.88
2022-03-26T05:26:00,mfh,44.06
2022-03-26T05:27:00,mfh,43.27
2022-03-26T05:28:00,mfh,43.27
2022-03-26T05:29:00,mfh,43.28
2022-03-26T05:30:00,mfh,43.14
2022-03-26T05:31:00,mfh,43.74
2022-03-26T05:32:00,mfh,44.11
2022-03-26T05:33:00,mfh,43.79
2022-03-26T05:34:00,mfh,43.74
2022-03-26T05:35:00,mfh,43.62
2022-03-26T05:36:00,mfh,43.31
2022-03-26T05:37:00,mfh,44.76
2022-03-26T05:38:00,mfh,44.65
2022-03-26T05:39:00,mfh,44.76
2022-03-26T05:40:00,mfh,45.82
2022-03-26T05:41:00,mfh,45.28
2022-03-26T05:42:00,mfh,45.32
2022-03-26T05:43:00,mfh,45.41
2022-03-26T05:44:00,mfh,45.43
2022-03-26T05:45:00,mfh,45.10
2022-03-26T05:46:00,mfh,44.80
2022-03-26T05:47:00,mfh,44.17
2022-03-26T05:48:00,mfh,44.12
2022-03-26T05:49:00,mfh,45.00
2022-03-26T05:50:00,mfh,45.00
2022-03-26T05:51:00,mfh,44.96
2022-03-26T05:52:00,mfh,44.83
2022-03-26T05:53:00,mfh,44.83
2022-03-26T05:54:00,mfh,44.34
2022-03-26T05:55:00,mfh,42.24
2022-03-26T05:56:00,mfh,42.15
2022-03-26T05:57:00,mfh,42.66
2022-03-26T05:58:00,mfh,43.36
2022-03-26T05:59:00,mfh,43.22
2022-03-26T06:00:00,mfh,43.27
2022-03-26T06:01:00,mfh,43.28
2022-03-26T06:02:00,mfh,42.54
2022-03-26T06:03:00,mfh,42.48
2022-03-26T06:04:00,mfh,43.34
2022-03-26T06:05:00,mfh,42.47
2022-03-26T06:06:00,mfh,43.53
2022-03-26T06:07:00,mfh,43.16
2022-03-26T06:08:00,mfh,43.13
2022-03-26T06:09:00,mfh,43.39
2022-03-26T06:10:00,mfh,42.46
2022-03-26T06:11:00,mfh,42.54
2022-03-26T06:12:00,mfh,42.34
2022-03-26T06:13:00,mfh,42.25
2022-03-26T06:14:00,mfh,41.88
2022-03-26T06:15:00,mfh,42.12
2022-03-26T06:16:00,mfh,42.19
2022-03-26T06:17:00,mfh,42.24
2022-03-26T06:18:00,mfh,42.51
2022-03-26T06:19:00,mfh,41.62
2022-03-26T06:20:00,mfh,41.77
2022-03-26T06:21:00,mfh,41.63
2022-03-26T06:22:00,mfh,41.62
2022-03-26T06:23:00,mfh,41.56
2022-03-26T06:24:00,mfh,42.06
2022-03-26T06:25:00,mfh,41.85
2022-03-26T06:26:00,mfh,42.40
2022-03-26T06:27:00,mfh,42.11
2022-03-26T06:28:00,mfh,42.02
2022-03-26T06:29:00,mfh,41.47
2022-03-26T06:30:00,mfh,42.14
2022-03-26T06:31:00,mfh,42.03
2022-03-26T06:32:00,mfh,41.95
2022-03-26T06:33:00,mfh,42.63
2022-03-26T06:34:00,mfh,42.69
2022-03-26T06:35:00,mfh,42.73
2022-03-26T06:36:00,mfh,42.82
2022-03-26T06:37:00,mfh,42.26
2022-03-26T06:38:00,mfh,41.71
2022-03-26T06:39:00,mfh,42.30
2022-03-26T06:40:00,mfh,41.47
2022-03-26T06:41:00,mfh,42.15
2022-03-26T06:42:00,mfh,42.22
2022-03-26T06:43:00,mfh,42.47
2022-03-26T06:44:00,mfh,42.13
2022-03-26T06:45:00,mfh,41.31
2022-03-26T06:46:00,mfh,41.37
2022-03-26T06:47:00,mfh,42.02
2022-03-26T06:48:00,mfh,42.16
2022-03-26T06:49:00,mfh,42.12
2022-03-26T06:50:00,mfh,42.62
2022-03-26T06:51:00,mfh,41.90
2022-03-26T06:52:00,mfh,42.01
2022-03-26T06:53:00,mfh,42.14
2022-03-26T06:54:00,mfh,41.55
2022-03-26T06:55:00,mfh,41.55
2022-03-26T06:56:00,mfh,41.51
2022-03-26T06:57:00,mfh,41.52
2022-03-26T06:58:00,mfh,42.03
2022-03-26T06:59:00,mfh,43.27
2022-03-26T07:00:00,mfh,42.44
2022-03-26T07:01:00,mfh,42.36
2022-03-26T07:02:00,mfh,42.43
2022-03-26T07:03:00,mfh,41.78
2022-03-26T07:04:00,mfh,41.98
2022-03-26T07:05:00,mfh,41.82
2022-03-26T07:06:00,mfh,41.82
2022-03-26T07:07:00,mfh,42.37
2022-03-26T07:08:00,mfh,42.44
2022-03-26T07:09:00,mfh,42.08
2022-03-26T07:10:00,mfh,42.09
2022-03-26T07:11:00,mfh,41.32
2022-03-26T07:12:00,mfh,41.09
2022-03-26T07:13:00,mfh,41.20
2022-03-26T07:14:00,mfh,41.32
2022-03-26T07:15:00,mfh,42.73
2022-03-26T07:16:00,mfh,42.60
2022-03-26T07:17:00,mfh,41.87
2022-03-26T07:18:00,mfh,42.03
2022-03-26T07:19:00,mfh,41.90
2022-03-26T07:20:00,mfh,41.72
2022-03-26T07:21:00,mfh,41.23
2022-03-26T07:22:00,mfh,41.47
2022-03-26T07:23:00,mfh,42.57
2022-03-26T07:24:00,mfh,42.22
2022-03-26T07:25:00,mfh,42.41
2022-03-26T07:26:00,mfh,42.52
2022-03-26T07:27:00,mfh,43.11
2022-03-26T07:28:00,mfh,42.19
2022-03-26T07:29:00,mfh,42.12
2022-03-26T07:30:00,mfh,42.06
2022-03-26T07:31:00,mfh,42.14
2022-03-26T07:32:00,mfh,42.64
2022-03-26T07:33:00,mfh,42.63
2022-03-26T07:34:00,mfh,42.78
2022-03-26T07:35:00,mfh,42.70
2022-03-26T07:36:00,mfh,41.94
2022-03-26T07:37:00,mfh,41.97
2022-03-26T07:38:00,mfh,41.74
2022-03-26T07:39:00,mfh,41.89
2022-03-26T07:40:00,mfh,41.86
2022-03-26T07:41:00,mfh,42.59
2022-03-26T07:42:00,mfh,42.56
2022-03-26T07:43:00,mfh,43.85
2022-03-26T07:44:00,mfh,42.63
2022-03-26T07:45:00,mfh,41.78
2022-03-26T07:46:00,mfh,41.67
2022-03-26T07:47:00,mfh,41.93
2022-03-26T07:48:00,mfh,41.93
2022-03-26T07:49:00,mfh,42.57
2022-03-26T07:50:00,mfh,42.62
2022-03-26T07:51:00,mfh,43.32
2022-03-26T07:52:00,mfh,43.06
2022-03-26T07:53:00,mfh,42.91
2022-03-26T07:54:00,mfh,42.59
2022-03-26T07:55:00,mfh,42.41
2022-03-26T07:56:00,mfh,42.44
2022-03-26T07:57:00,mfh,42.15
2022-03-26T07:58:00,mfh,43.20
2022-03-26T07:59:00,mfh,43.17
2022-03-26T08:00:00,mfh,42.86
2022-03-26T08:01:00,mfh,42.82
2022-03-26T08:02:00,mfh,42.14
2022-03-26T08:03:00,mfh,42.08
2022-03-26T08:04:00,mfh,42.09
2022-03-26T08:05:00,mfh,42.17
2022-03-26T08:06:00,mfh,42.65
2022-03-26T08:07:00,mfh,42.71
2022-03-26T08:08:00,mfh,42.80
2022-03-26T08:09:00,mfh,42.98
2022-03-26T08:10:00,mfh,43.29
2022-03-26T08:11:00,mfh,48.04
2022-03-26T08:12:00,mfh,48.73
2022-03-26T08:13:00,mfh,48.82
2022-03-26T08:14:00,mfh,51.02
2022-03-26T08:15:00,mfh,51.92
2022-03-26T08:16:00,mfh,52.04
2022-03-26T08:17:00,mfh,52.07
2022-03-26T08:18:00,mfh,52.23
2022-03-26T08:19:00,mfh,52.15
2022-03-26T08:20:00,mfh,51.42
2022-03-26T08:21:00,mfh,51.53
2022-03-26T08:22:00,mfh,51.25
2022-03-26T08:23:00,mfh,51.50
2022-03-26T08:24:00,mfh,51.92
2022-03-26T08:25:00,mfh,57.97
2022-03-26T08:26:00,mfh,59.05
2022-03-26T08:27:00,mfh,60.60
2022-03-26T08:28:00,mfh,59.20
2022-03-26T08:29:00,mfh,59.20
2022-03-26T08:30:00,mfh,59.14
2022-03-26T08:31:00,mfh,57.17
2022-03-26T08:32:00,mfh,57.41
2022-03-26T08:33:00,mfh,58.16
2022-03-26T08:34:00,mfh,58.26
2022-03-26T08:35:00,mfh,58.12
2022-03-26T08:36:00,mfh,57.88
2022-03-26T08:37:00,mfh,57.25
2022-03-26T08:38:00,mfh,58.01
2022-03-26T08:39:00,mfh,57.44
2022-03-26T08:40:00,mfh,49.39
2022-03-26T08:41:00,mfh,49.99
2022-03-26T08:42:00,mfh,50.15
2022-03-26T08:43:00,mfh,49.98
2022-03-26T08:44:00,mfh,49.96
2022-03-26T08:45:00,mfh,49.93
2022-03-26T08:46:00,mfh,49.27
2022-03-26T08:47:00,mfh,49.01
2022-03-26T08:48:00,mfh,48.98
2022-03-26T08:49:00,mfh,58.72
2022-03-26T08:50:00,mfh,59.85
2022-03-26T08:51:00,mfh,59.75
2022-03-26T08:52:00,mfh,59.77
2022-03-26T08:53:00,mfh,59.79
2022-03-26T08:54:00,mfh,59.09
2022-03-26T08:55:00,mfh,59.10
2022-03-26T08:56:00,mfh,59.26
2022-03-26T08:57:00,mfh,59.41
2022-03-26T08:58:00,mfh,59.35
2022-03-26T08:59:00,mfh,60.12
2022-03-26T09:00:00,mfh,60.51
2022-03-26T09:01:00,mfh,60.18
2022-03-26T09:02:00,mfh,61.62
2022-03-26T09:03:00,mfh,61.37
2022-03-26T09:04:00,mfh,61.58
2022-03-26T09:05:00,mfh,61.31
2022-03-26T09:06:00,mfh,62.09
2022-03-26T09:07:00,mfh,62.05
2022-03-26T09:08:00,mfh,62.22
2022-03-26T09:09:00,mfh,62.44
2022-03-26T09:10:00,mfh,62.10
2022-03-26T09:11:00,mfh,62.09
2022-03-26T09:12:00,mfh,61.24
2022-03-26T09:13:00,mfh,60.99
2022-03-26T09:14:00,mfh,60.87
2022-03-26T09:15:00,mfh,60.94
2022-03-26T09:16:00,mfh,61.53
2022-03-26T09:17:00,mfh,61.22
2022-03-26T09:18:00,mfh,61.32
2022-03-26T09:19:00,mfh,60.73
2022-03-26T09:20:00,mfh,61.09
2022-03-26T09:21:00,mfh,60.59
2022-03-26T09:22:00,mfh,60.55
2022-03-26T09:23:00,mfh,60.65
2022-03-26T09:24:00,mfh,60.36
2022-03-26T09:25:00,mfh,61.04
2022-03-26T09:26:00,mfh,60.97
2022-03-26T09:27:00,mfh,61.25
2022-03-26T09:28:00,mfh,61.23
2022-03-26T09:29:00,mfh,67.07
2022-03-26T09:30:00,mfh,68.09
2022-03-26T09:31:00,mfh,68.77
2022-03-26T09:32:00,mfh,69.52
2022-03-26T09:33:00,mfh,70.09
2022-03-26T09:34:00,mfh,70.74
2022-03-26T09:35:00,mfh,70.18
2022-03-26T09:36:00,mfh,70.60
2022-03-26T09:37:00,mfh,70.11
2022-03-26T09:38:00,mfh,69.08
2022-03-26T09:39:00,mfh,68.83
2022-03-26T09:40:00,mfh,68.62
2022-03-26T09:41:00,mfh,69.46
2022-03-26T09:42:00,mfh,69.15
2022-03-26T09:43:00,mfh,69.27
2022-03-26T09:44:00,mfh,69.48
2022-03-26T09:45:00,mfh,62.09
2022-03-26T09:46:00,mfh,61.33
2022-03-26T09:47:00,mfh,60.84
2022-03-26T09:48:00,mfh,60.60
2022-03-26T09:49:00,mfh,60.44
2022-03-26T09:50:00,mfh,61.03
2022-03-26T09:51:00,mfh,61.70
2022-03-26T09:52:00,mfh,61.69
2022-03-26T09:53:00,mfh,61.62
2022-03-26T09:54:00,mfh,61.24
2022-03-26T09:55:00,mfh,61.15
2022-03-26T09:56:00,mfh,67.28
2022-03-26T09:57:00,mfh,68.35
2022-03-26T09:58:00,mfh,69.39
2022-03-26T09:59:00,mfh,69.38
2022-03-26T10:00:00,mfh,69.58
2022-03-26T10:01:00,mfh,69.56
2022-03-26T10:02:00,mfh,69.64
2022-03-26T10:03:00,mfh,68.67
2022-03-26T10:04:00,mfh,76.43
2022-03-26T10:05:00,mfh,79.98
2022-03-26T10:06:00,mfh,80.49
2022-03-26T10:07:00,mfh,80.99
2022-03-26T10:08:00,mfh,81.09
2022-03-26T10:09:00,mfh,80.99
2022-03-26T10:10:00,mfh,81.02
2022-03-26T10:11:00,mfh,80.84
2022-03-26T10:12:00,mfh,80.48
2022-03-26T10:13:00,mfh,80.03
2022-03-26T10:14:00,mfh,80.56
2022-03-26T10:15:00,mfh,80.48
2022-03-26T10:16:00,mfh,79.98
2022-03-26T10:17:00,mfh,80.02
2022-03-26T10:18:00,mfh,80.12
2022-03-26T10:19:00,mfh,80.11
2022-03-26T10:20:00,mfh,71.94
2022-03-26T10:21:00,mfh,66.35
2022-03-26T10:22:00,mfh,57.73
2022-03-26T10:23:00,mfh,57.59
2022-03-26T10:24:00,mfh,58.13
2022-03-26T10:25:00,mfh,58.29
2022-03-26T10:26:00,mfh,58.53
2022-03-26T10:27:00,mfh,58.44
2022-03-26T10:28:00,mfh,59.02
2022-03-26T10:29:00,mfh,58.03
2022-03-26T10:30:00,mfh,58.13
2022-03-26T10:31:00,mfh,58.58
2022-03-26T10:32:00,mfh,58.46
2022-03-26T10:33:00,mfh,58.88
2022-03-26T10:34:00,mfh,67.27
2022-03-26T10:35:00,mfh,67.91
2022-03-26T10:36:00,mfh,67.56
2022-03-26T10:37:00,mfh,66.55
2022-03-26T10:38:00,mfh,66.40
2022-03-26T10:39:00,mfh,66.40
2022-03-26T10:40:00,mfh,66.68
2022-03-26T10:41:00,mfh,66.28
2022-03-26T10:42:00,mfh,78.44
2022-03-26T10:43:00,mfh,80.05
2022-03-26T10:44:00,mfh,80.52
2022-03-26T10:45:00,mfh,80.76
2022-03-26T10:46:00,mfh,80.16
2022-03-26T10:47:00,mfh,81.38
2022-03-26T10:48:00,mfh,81.04
2022-03-26T10:49:00,mfh,73.97
2022-03-26T10:50:00,mfh,75.46
2022-03-26T10:51:00,mfh,75.08
2022-03-26T10:52:00,mfh,74.72
2022-03-26T10:53:00,mfh,75.54
2022-03-26T10:54:00,mfh,75.17
2022-03-26T10:55:00,mfh,74.20
2022-03-26T10:56:00,mfh,74.36
2022-03-26T10:57:00,mfh,73.90
2022-03-26T10:58:00,mfh,73.97
2022-03-26T10:59:00,mfh,74.33
2022-03-26T11:00:00,mfh,74.32
2022-03-26T11:01:00,mfh,73.90
2022-03-26T11:02:00,mfh,74.17
2022-03-26T11:03:00,mfh,74.04
2022-03-26T11:04:00,mfh,72.99
2022-03-26T11:05:00,mfh,73.33
2022-03-26T11:06:00,mfh,72.73
2022-03-26T11:07:00,mfh,73.24
2022-03-26T11:08:00,mfh,73.41
2022-03-26T11:09:00,mfh,73.42
2022-03-26T11:10:00,mfh,73.62
2022-03-26T11:11:00,mfh,73.57
2022-03-26T11:12:00,mfh,73.04
2022-03-26T11:13:00,mfh,73.27
2022-03-26T11:14:00,mfh,73.12
2022-03-26T11:15:00,mfh,72.96
2022-03-26T11:16:00,mfh,72.84
2022-03-26T11:17:00,mfh,73.67
2022-03-26T11:18:00,mfh,73.59
2022-03-26T11:19:00,mfh,79.82
2022-03-26T11:20:00,mfh,81.29
2022-03-26T11:21:00,mfh,80.72
2022-03-26T11:22:00,mfh,80.91
2022-03-26T11:23:00,mfh,81.69
2022-03-26T11:24:00,mfh,81.69
2022-03-26T11:25:00,mfh,82.09
2022-03-26T11:26:00,mfh,81.80
2022-03-26T11:27:00,mfh,81.76
2022-03-26T11:28:00,mfh,81.05
2022-03-26T11:29:00,mfh,80.86
2022-03-26T11:30:00,mfh,80.64
2022-03-26T11:31:00,mfh,80.39
2022-03-26T11:32:00,mfh,80.48
2022-03-26T11:33:00,mfh,80.71
2022-03-26T11:34:00,mfh,80.92
2022-03-26T11:35:00,mfh,80.95
2022-03-26T11:36:00,mfh,81.31
2022-03-26T11:37:00,mfh,73.95
2022-03-26T11:38:00,mfh,73.26
2022-03-26T11:39:00,mfh,73.32
2022-03-26T11:40:00,mfh,73.21
2022-03-26T11:41:00,mfh,73.20
2022-03-26T11:42:00,mfh,73.91
2022-03-26T11:43:00,mfh,73.89
2022-03-26T11:44:00,mfh,73.88
2022-03-26T11:45:00,mfh,72.85
2022-03-26T11:46:00,mfh,72.84
2022-03-26T11:47:00,mfh,72.12
2022-03-26T11:48:00,mfh,72.34
2022-03-26T11:49:00,mfh,72.11
2022-03-26T11:50:00,mfh,72.13
2022-03-26T11:51:00,mfh,73.11
2022-03-26T11:52:00,mfh,72.46
2022-03-26T11:53:00,mfh,72.52
2022-03-26T11:54:00,mfh,72.39
2022-03-26T11:55:00,mfh,72.36
2022-03-26T11:56:00,mfh,72.05
2022-03-26T11:57:00,mfh,73.52
2022-03-26T11:58:00,mfh,73.02
2022-03-26T11:59:00,mfh,72.86
2022-03-26T12:00:00,mfh,73.50
2022-03-26T12:01:00,mfh,73.67
2022-03-26T12:02:00,mfh,73.53
2022-03-26T12:03:00,mfh,73.47
2022-03-26T12:04:00,mfh,73.42
2022-03-26T12:05:00,mfh,72.77
2022-03-26T12:06:00,mfh,73.01
2022-03-26T12:07:00,mfh,72.80
2022-03-26T12:08:00,mfh,72.76
2022-03-26T12:09:00,mfh,73.39
2022-03-26T12:10:00,mfh,73.42
2022-03-26T12:11:00,mfh,73.45
2022-03-26T12:12:00,mfh,73.54
2022-03-26T12:13:00,mfh,72.87
2022-03-26T12:14:00,mfh,72.92
2022-03-26T12:15:00,mfh,73.41
2022-03-26T12:16:00,mfh,72.08
2022-03-26T12:17:00,mfh,72.74
2022-03-26T12:18:00,mfh,71.71
2022-03-26T12:19:00,mfh,71.67
2022-03-26T12:20:00,mfh,65.65
2022-03-26T12:21:00,mfh,65.67
2022-03-26T12:22:00,mfh,64.91
2022-03-26T12:23:00,mfh,57.04
2022-03-26T12:24:00,mfh,56.93
2022-03-26T12:25:00,mfh,57.05
2022-03-26T12:26:00,mfh,57.79
2022-03-26T12:27:00,mfh,58.52
2022-03-26T12:28:00,mfh,58.52
2022-03-26T12:29:00,mfh,58.89
2022-03-26T12:30:00,mfh,58.96
2022-03-26T12:31:00,mfh,57.63
2022-03-26T12:32:00,mfh,58.13
2022-03-26T12:33:00,mfh,57.59
2022-03-26T12:34:00,mfh,58.09
2022-03-26T12:35:00,mfh,58.08
2022-03-26T12:36:00,mfh,58.21
2022-03-26T12:37:00,mfh,58.25
2022-03-26T12:38:00,mfh,58.29
2022-03-26T12:39:00,mfh,57.89
2022-03-26T12:40:00,mfh,57.48
2022-03-26T12:41:00,mfh,57.45
2022-03-26T12:42:00,mfh,57.53
2022-03-26T12:43:00,mfh,58.08
2022-03-26T12:44:00,mfh,58.09
2022-03-26T12:45:00,mfh,58.29
2022-03-26T12:46:00,mfh,58.35
2022-03-26T12:47:00,mfh,58.33
2022-03-26T12:48:00,mfh,57.68
2022-03-26T12:49:00,mfh,57.68
2022-03-26T12:50:00,mfh,57.56
2022-03-26T12:51:00,mfh,58.07
2022-03-26T12:52:00,mfh,58.05
2022-03-26T12:53:00,mfh,58.26
2022-03-26T12:54:00,mfh,58.28
2022-03-26T12:55:00,mfh,58.25
2022-03-26T12:56:00,mfh,57.64
2022-03-26T12:57:00,mfh,57.59
2022-03-26T12:58:00,mfh,57.62
2022-03-26T12:59:00,mfh,57.98
2022-03-26T13:00:00,mfh,58.80
2022-03-26T13:01:00,mfh,59.42
2022-03-26T13:02:00,mfh,58.81
2022-03-26T13:03:00,mfh,58.53
2022-03-26T13:04:00,mfh,58.63
2022-03-26T13:05:00,mfh,57.76
2022-03-26T13:06:00,mfh,57.64
2022-03-26T13:07:00,mfh,57.78
2022-03-26T13:08:00,mfh,57.85
2022-03-26T13:09:00,mfh,59.56
2022-03-26T13:10:00,mfh,58.46
2022-03-26T13:11:00,mfh,58.72
2022-03-26T13:12:00,mfh,58.47
2022-03-26T13:13:00,mfh,58.56
2022-03-26T13:14:00,mfh,58.02
2022-03-26T13:15:00,mfh,58.11
2022-03-26T13:16:00,mfh,58.09
2022-03-26T13:17:00,mfh,59.31
2022-03-26T13:18:00,mfh,59.74